Location: Houston
(29.7631°N, 95.3631°W)
Time: 13:17:00
(UTC-05:00)

UNISAT 6 - Pass Details

Date: 21 September 2021
Orbit: 606 x 687 km, 97.7° (Epoch: 27 October)

Event Time Altitude Azimuth Distance (km) Brightness Sun altitude
Rises 19:46:45 0° 21° (NNE) 3,058 ? -6.9°
Reaches altitude 10° 19:49:09 10° 30° (NNE) 2,137 ? -7.4°
Maximum altitude 19:53:31 38° 98° (E) 1,034 ? -8.4°
Drops below altitude 10° 19:57:49 10° 167° (SSE) 2,106 ? -9.3°
Sets 20:00:09 0° 175° (S) 3,006 ? -9.8°
